When you browse on this site, cookies collect data to enhance your experience and personalize the content and advertising you see.
Visit our Privacy Policy to learn more. By continuing to use the site, you agree to this use of cookies and data.
  • In Österreich
  • Länderverzeichnis
  • Für 7 Tage
  • Wassertemperatur
  • Wetterkarte
  • News
  • Widgets
  • user-avatar
    Anmelden

    Stündliche Wetter Berlin

    Heute, 27 Mai, Mittwoch

    Zeit Temperatur Niederschläge Wind Luftdruck Luftfeuchtigkeit
    00:00 +11°C° 0 mm 1 m/S 772 mmHg 81%
    01:00 +11°C° 0 mm 1 m/S 772 mmHg 83%
    02:00 +11°C° 0 mm 1 m/S 771 mmHg 84%
    03:00 +9°C° 0 mm 0 m/S 771 mmHg 85%
    04:00 +9°C° 0 mm 0 m/S 771 mmHg 87%
    05:00 +11°C° 0 mm 0 m/S 771 mmHg 80%
    06:00 +12°C° 0 mm 0 m/S 771 mmHg 73%
    07:00 +14°C° 0 mm 0 m/S 771 mmHg 67%
    08:00 +16°C° 0 mm 0 m/S 771 mmHg 61%
    09:00 +19°C° 0 mm 1 m/S 771 mmHg 54%
    10:00 +21°C° 0 mm 1 m/S 771 mmHg 48%
    11:00 +22°C° 0 mm 1 m/S 770 mmHg 48%
    12:00 +21°C° 0 mm 2 m/S 770 mmHg 47%
    13:00 +21°C° 0 mm 2 m/S 769 mmHg 47%
    14:00 +21°C° 0.4 mm 2 m/S 769 mmHg 53%
    15:00 +20°C° 0.4 mm 3 m/S 768 mmHg 59%
    16:00 +20°C° 0.4 mm 3 m/S 768 mmHg 64%
    17:00 +19°C° 0.1 mm 3 m/S 768 mmHg 67%
    18:00 +18°C° 0.1 mm 3 m/S 768 mmHg 70%
    19:00 +17°C° 0.1 mm 3 m/S 768 mmHg 72%
    20:00 +16°C° 0 mm 3 m/S 768 mmHg 76%
    21:00 +14°C° 0 mm 3 m/S 768 mmHg 79%
    22:00 +13°C° 0 mm 3 m/S 769 mmHg 83%
    23:00 +12°C° 0.1 mm 3 m/S 769 mmHg 80%

    Morgen, 28 Mai, Donnerstag

    Zeit Temperatur Niederschläge Wind Luftdruck Luftfeuchtigkeit
    00:00 +11°C° 0.1 mm 3 m/S 769 mmHg 78%
    01:00 +12°C° 0.1 mm 2 m/S 769 mmHg 75%
    02:00 +10°C° 0 mm 3 m/S 769 mmHg 80%
    03:00 +9°C° 0 mm 3 m/S 769 mmHg 84%
    04:00 +8°C° 0 mm 3 m/S 769 mmHg 88%
    05:00 +9°C° 0 mm 3 m/S 769 mmHg 84%
    06:00 +10°C° 0 mm 4 m/S 769 mmHg 79%
    07:00 +11°C° 0 mm 4 m/S 769 mmHg 74%
    08:00 +12°C° 0 mm 4 m/S 769 mmHg 67%
    09:00 +14°C° 0 mm 4 m/S 768 mmHg 60%
    10:00 +17°C° 0 mm 4 m/S 768 mmHg 53%
    11:00 +18°C° 0 mm 4 m/S 768 mmHg 50%
    12:00 +19°C° 0 mm 4 m/S 767 mmHg 47%
    13:00 +20°C° 0 mm 5 m/S 767 mmHg 44%
    14:00 +20°C° 0 mm 5 m/S 767 mmHg 45%
    15:00 +20°C° 0 mm 5 m/S 767 mmHg 45%
    16:00 +20°C° 0 mm 6 m/S 767 mmHg 46%
    17:00 +17°C° 0 mm 5 m/S 767 mmHg 52%
    18:00 +16°C° 0 mm 5 m/S 767 mmHg 59%
    19:00 +15°C° 0 mm 4 m/S 767 mmHg 65%
    20:00 +14°C° 0 mm 4 m/S 767 mmHg 70%
    21:00 +12°C° 0 mm 4 m/S 767 mmHg 74%
    22:00 +11°C° 0 mm 3 m/S 768 mmHg 78%
    23:00 +10°C° 0 mm 3 m/S 768 mmHg 78%

    übermorgen, 29 Mai, Freitag

    Zeit Temperatur Niederschläge Wind Luftdruck Luftfeuchtigkeit
    00:00 +9°C° 0 mm 3 m/S 768 mmHg 78%
    01:00 +8°C° 0 mm 3 m/S 768 mmHg 78%
    02:00 +8°C° 0 mm 3 m/S 768 mmHg 80%
    03:00 +8°C° 0 mm 3 m/S 768 mmHg 82%
    04:00 +7°C° 0 mm 2 m/S 768 mmHg 84%
    05:00 +9°C° 0 mm 3 m/S 768 mmHg 76%
    06:00 +11°C° 0 mm 4 m/S 768 mmHg 68%
    07:00 +12°C° 0 mm 4 m/S 768 mmHg 59%
    08:00 +14°C° 0 mm 4 m/S 768 mmHg 53%
    09:00 +15°C° 0 mm 5 m/S 768 mmHg 46%
    10:00 +17°C° 0 mm 5 m/S 768 mmHg 39%
    11:00 +17°C° 0 mm 5 m/S 767 mmHg 39%
    12:00 +19°C° 0 mm 5 m/S 767 mmHg 39%
    13:00 +20°C° 0 mm 5 m/S 767 mmHg 39%
    14:00 +19°C° 0 mm 5 m/S 766 mmHg 40%
    15:00 +19°C° 0 mm 5 m/S 766 mmHg 41%
    16:00 +19°C° 0 mm 5 m/S 766 mmHg 42%
    17:00 +18°C° 0 mm 4 m/S 766 mmHg 46%
    18:00 +17°C° 0 mm 4 m/S 766 mmHg 51%
    19:00 +16°C° 0 mm 3 m/S 766 mmHg 56%
    20:00 +14°C° 0 mm 3 m/S 766 mmHg 60%
    21:00 +12°C° 0 mm 3 m/S 766 mmHg 65%
    22:00 +12°C° 0 mm 2 m/S 766 mmHg 70%
    23:00 +10°C° 0 mm 2 m/S 766 mmHg 72%

    30 Mai, Samstag

    Zeit Temperatur Niederschläge Wind Luftdruck Luftfeuchtigkeit
    00:00 +9°C° 0 mm 2 m/S 766 mmHg 74%
    01:00 +9°C° 0 mm 2 m/S 765 mmHg 76%
    02:00 +9°C° 0 mm 2 m/S 765 mmHg 78%
    03:00 +9°C° 0 mm 2 m/S 765 mmHg 79%
    04:00 +9°C° 0 mm 2 m/S 765 mmHg 81%
    05:00 +10°C° 0 mm 2 m/S 765 mmHg 78%
    06:00 +11°C° 0 mm 3 m/S 765 mmHg 76%
    07:00 +12°C° 0 mm 3 m/S 764 mmHg 73%
    08:00 +13°C° 0 mm 3 m/S 764 mmHg 67%
    09:00 +15°C° 0 mm 4 m/S 764 mmHg 60%
    10:00 +18°C° 0 mm 4 m/S 764 mmHg 54%
    11:00 +17°C° 0.1 mm 5 m/S 763 mmHg 51%
    12:00 +19°C° 0.1 mm 5 m/S 763 mmHg 48%
    13:00 +19°C° 0.1 mm 6 m/S 763 mmHg 46%
    14:00 +19°C° 0 mm 6 m/S 763 mmHg 45%
    15:00 +19°C° 0 mm 6 m/S 762 mmHg 44%
    16:00 +19°C° 0 mm 6 m/S 762 mmHg 43%
    17:00 +16°C° 0 mm 6 m/S 762 mmHg 48%
    18:00 +15°C° 0 mm 5 m/S 762 mmHg 53%
    19:00 +14°C° 0 mm 4 m/S 762 mmHg 58%
    20:00 +13°C° 0 mm 4 m/S 762 mmHg 60%
    21:00 +13°C° 0 mm 4 m/S 762 mmHg 61%
    22:00 +12°C° 0 mm 3 m/S 762 mmHg 62%
    23:00 +12°C° 0 mm 4 m/S 762 mmHg 65%

    31 Mai, Sonntag

    Zeit Temperatur Niederschläge Wind Luftdruck Luftfeuchtigkeit
    00:00 +12°C° 0 mm 4 m/S 762 mmHg 67%
    01:00 +11°C° 0 mm 4 m/S 762 mmHg 69%
    02:00 +11°C° 0.3 mm 4 m/S 761 mmHg 74%
    03:00 +11°C° 0.3 mm 4 m/S 761 mmHg 80%
    04:00 +10°C° 0.3 mm 4 m/S 761 mmHg 85%
    05:00 +10°C° 0.2 mm 4 m/S 761 mmHg 87%
    06:00 +9°C° 0.2 mm 5 m/S 761 mmHg 89%
    07:00 +10°C° 0.2 mm 5 m/S 761 mmHg 90%
    08:00 +10°C° 0.4 mm 5 m/S 761 mmHg 90%
    09:00 +10°C° 0.4 mm 5 m/S 761 mmHg 90%
    10:00 +10°C° 0.4 mm 5 m/S 761 mmHg 91%
    11:00 +11°C° 0.1 mm 4 m/S 761 mmHg 90%
    12:00 +11°C° 0.1 mm 4 m/S 760 mmHg 90%
    13:00 +11°C° 0.1 mm 4 m/S 760 mmHg 90%
    14:00 +11°C° 0 mm 3 m/S 761 mmHg 90%
    15:00 +11°C° 0 mm 3 m/S 761 mmHg 90%
    16:00 +12°C° 0 mm 3 m/S 761 mmHg 90%
    17:00 +13°C° 0 mm 2 m/S 761 mmHg 90%
    18:00 +13°C° 0 mm 2 m/S 761 mmHg 90%
    19:00 +13°C° 0 mm 1 m/S 761 mmHg 90%
    20:00 +13°C° 0 mm 1 m/S 761 mmHg 91%
    21:00 +13°C° 0 mm 2 m/S 761 mmHg 93%
    22:00 +13°C° 0 mm 2 m/S 761 mmHg 94%
    23:00 +13°C° 0.1 mm 2 m/S 761 mmHg 94%

    1 Juni, Montag

    Zeit Temperatur Niederschläge Wind Luftdruck Luftfeuchtigkeit
    00:00 +13°C° 0.1 mm 2 m/S 761 mmHg 95%
    01:00 +13°C° 0.1 mm 2 m/S 761 mmHg 95%
    02:00 +13°C° 0 mm 2 m/S 761 mmHg 96%
    03:00 +12°C° 0 mm 1 m/S 761 mmHg 96%
    04:00 +12°C° 0 mm 1 m/S 761 mmHg 96%
    05:00 +13°C° 0 mm 1 m/S 761 mmHg 94%
    06:00 +14°C° 0 mm 1 m/S 761 mmHg 92%
    07:00 +15°C° 0 mm 1 m/S 761 mmHg 90%
    08:00 +16°C° 0 mm 1 m/S 762 mmHg 86%
    09:00 +18°C° 0 mm 1 m/S 762 mmHg 82%
    10:00 +18°C° 0 mm 2 m/S 762 mmHg 79%
    11:00 +20°C° 0.2 mm 2 m/S 761 mmHg 72%
    12:00 +23°C° 0.2 mm 2 m/S 761 mmHg 66%
    13:00 +24°C° 0.2 mm 2 m/S 761 mmHg 60%
    14:00 +25°C° 0.4 mm 3 m/S 761 mmHg 59%
    15:00 +25°C° 0.4 mm 3 m/S 761 mmHg 58%
    16:00 +25°C° 0.4 mm 3 m/S 761 mmHg 57%
    17:00 +24°C° 0.1 mm 3 m/S 761 mmHg 59%
    18:00 +24°C° 0.1 mm 3 m/S 761 mmHg 62%
    19:00 +22°C° 0.1 mm 3 m/S 761 mmHg 65%
    20:00 +20°C° 0 mm 3 m/S 761 mmHg 70%
    21:00 +18°C° 0 mm 3 m/S 761 mmHg 75%
    22:00 +16°C° 0 mm 3 m/S 761 mmHg 80%
    23:00 +16°C° 0 mm 3 m/S 761 mmHg 82%
    Mehr zeigen